Weather History for Quillayute, WA

Change the Weather History Date:

Thursday, December 20, 2012

  Actual Average Record
Temperature  
Mean Temperature 39 °F 40 °F  
Max Temperature 41 °F 46 °F 58 °F (2005)
Min Temperature 36 °F 34 °F 18 °F (1990)
Degree Days  
Heating Degree Days 26 25  
Month to date heating degree days 492  
Since 1 July heating degree days 2206  
Cooling Degree Days 0 0  
Month to date cooling degree days 0  
Year to date cooling degree days 19  
Moisture  
Dew Point 37 °F    
Average Humidity 96    
Maximum Humidity 100    
Minimum Humidity 84    
Precipitation  
Precipitation 0.41 in 0.40 in 1.77 in (2009)
Month to date precipitation 8.52  
Year to date precipitation 95.07  
Sea Level Pressure  
Sea Level Pressure 29.57 in    
Wind  
Wind Speed 5 mph (SE)    
Max Wind Speed 16 mph    
Max Gust Speed 24 mph    
Visibility 4 miles    
Events Rain    
T = Trace of Precipitation, MM = Missing Value Source: NWS Daily Summary

Daily Weather History Graph

Daily Weather History Graph

Search for Another Location

Airport:

Trip Planner

Search our weather history database for the weather conditions in past years. The results will help you decide how hot, cold, wet, or windy it might be!

Date:

Astronomy

Dec. 20, 2012 Rise Set
Actual Time 8:04 AM PST 4:27 PM PST
Civil Twilight 7:28 AM PST 5:03 PM PST
Nautical Twilight 6:48 AM PST 5:43 PM PST
Astronomical Twilight 6:10 AM PST 6:21 PM PST
Moon 12:09 PM PST (12/20) 12:33 AM PST (12/20)
Length of Visible Light 9h 35m
Length of Day
8h 22m
First Quarter, 56% of the Moon is Illuminated
Dec 20
First Quarter
Dec 28
Full
Jan 4
Last Quarter
Jan 11
New
Jan 18
First Quarter

Hourly Weather History & Observations

Time (PST) Temp. Windchill Dew Point Humidity Pressure Visibility Wind Dir Wind Speed Gust Speed Precip Events Conditions
12:53 AM 37.0 °F 32.4 °F 36.0 °F 96% 29.45 in 7.0 mi ESE 5.8 mph - 0.00 in   Overcast
1:53 AM 37.0 °F 33.3 °F 36.0 °F 96% 29.46 in 6.0 mi SE 4.6 mph - 0.00 in   Overcast
2:53 AM 37.9 °F 34.4 °F 37.0 °F 97% 29.47 in 6.0 mi SE 4.6 mph - 0.01 in Rain Light Rain
3:24 AM 37.4 °F - 37.4 °F 100% 29.48 in 7.0 mi Calm Calm - 0.00 in   Overcast
3:53 AM 37.9 °F 35.5 °F 36.0 °F 93% 29.48 in 7.0 mi SSE 3.5 mph - 0.00 in   Overcast
4:53 AM 37.9 °F 34.4 °F 37.0 °F 97% 29.49 in 3.0 mi SSE 4.6 mph - 0.02 in Rain Light Rain
5:09 AM 37.4 °F 32.1 °F 37.4 °F 100% 29.48 in 2.5 mi SSE 6.9 mph - 0.01 in Rain Light Rain
5:19 AM 37.4 °F 32.8 °F 37.4 °F 100% 29.47 in 4.0 mi SE 5.8 mph - 0.02 in Rain Light Rain
5:31 AM 37.4 °F 32.1 °F 37.4 °F 100% 29.47 in 3.0 mi SE 6.9 mph - 0.02 in Rain Light Rain
5:42 AM 37.4 °F 34.9 °F 37.4 °F 100% 29.47 in 4.0 mi SSE 3.5 mph - 0.02 in Rain Light Rain
5:53 AM 37.9 °F 34.4 °F 37.0 °F 97% 29.48 in 3.0 mi SE 4.6 mph - 0.03 in Rain Light Rain
6:14 AM 39.2 °F 35.9 °F 37.4 °F 93% 29.47 in 1.8 mi SSE 4.6 mph - 0.01 in Rain Light Rain
6:19 AM 39.2 °F 37.0 °F 37.4 °F 93% 29.47 in 2.0 mi Variable 3.5 mph - 0.01 in Rain Light Rain
6:31 AM 39.2 °F 35.9 °F 37.4 °F 93% 29.47 in 3.0 mi SSE 4.6 mph - 0.02 in Rain Light Rain
6:39 AM 39.2 °F 35.9 °F 37.4 °F 93% 29.47 in 2.0 mi Variable 4.6 mph - 0.02 in Rain Light Rain
6:48 AM 39.2 °F 37.0 °F 37.4 °F 93% 29.47 in 3.0 mi SE 3.5 mph - 0.03 in Rain Light Rain
6:53 AM 39.0 °F 34.0 °F 37.9 °F 96% 29.47 in 4.0 mi ESE 6.9 mph - 0.04 in Rain Light Rain
6:59 AM 39.2 °F 35.9 °F 37.4 °F 93% 29.48 in 5.0 mi SSE 4.6 mph - 0.00 in Rain Light Rain
7:51 AM 39.2 °F 33.6 °F 37.4 °F 93% 29.48 in 1.8 mi SE 8.1 mph - 0.04 in Rain Rain
7:53 AM 37.9 °F 31.5 °F 37.0 °F 97% 29.49 in 1.8 mi SE 9.2 mph - 0.05 in Rain Rain
8:04 AM 37.4 °F 31.4 °F 37.4 °F 100% 29.48 in 2.5 mi ESE 8.1 mph - 0.02 in Rain Light Rain
8:12 AM 37.4 °F 32.1 °F 37.4 °F 100% 29.49 in 4.0 mi ESE 6.9 mph - 0.03 in Rain Light Rain
8:45 AM 37.4 °F 32.1 °F 37.4 °F 100% 29.50 in 2.0 mi ESE 6.9 mph - 0.05 in Rain Light Rain
8:53 AM 37.9 °F 34.4 °F 37.0 °F 97% 29.51 in 2.0 mi SE 4.6 mph - 0.07 in Rain Light Rain
9:16 AM 37.4 °F 32.8 °F 37.4 °F 100% 29.52 in 2.0 mi ESE 5.8 mph - 0.02 in Rain Light Rain
9:20 AM 37.4 °F 33.8 °F 37.4 °F 100% 29.52 in 1.8 mi Variable 4.6 mph - 0.02 in Rain Light Rain
9:26 AM 37.4 °F 32.1 °F 37.4 °F 100% 29.52 in 2.0 mi SE 6.9 mph - 0.03 in Rain Light Rain
9:44 AM 37.4 °F 31.4 °F 37.4 °F 100% 29.53 in 3.0 mi SE 8.1 mph - 0.03 in Rain Light Rain
9:53 AM 37.0 °F 31.0 °F 37.0 °F 100% 29.54 in 3.0 mi SSE 8.1 mph - 0.04 in Rain Light Rain
10:14 AM 37.4 °F 31.4 °F 35.6 °F 93% 29.53 in 1.8 mi SE 8.1 mph - 0.00 in Rain Light Rain
10:24 AM 37.4 °F 32.1 °F 35.6 °F 93% 29.54 in 2.0 mi ESE 6.9 mph - 0.00 in Rain Light Rain
10:38 AM 37.4 °F 32.8 °F 35.6 °F 93% 29.54 in 4.0 mi SE 5.8 mph - 0.00 in   Overcast
10:53 AM 37.0 °F 32.4 °F 36.0 °F 96% 29.55 in 4.0 mi SE 5.8 mph - 0.00 in Rain Light Rain
11:53 AM 39.0 °F 35.7 °F 37.9 °F 96% 29.57 in 3.0 mi SE 4.6 mph - 0.01 in   Overcast
12:17 PM 39.2 °F 34.2 °F 39.2 °F 100% 29.57 in 6.0 mi SE 6.9 mph - N/A   Overcast
12:53 PM 39.9 °F 35.1 °F 37.9 °F 93% 29.59 in 2.5 mi SSE 6.9 mph - 0.00 in Rain Light Rain
1:09 PM 39.2 °F 35.0 °F 39.2 °F 100% 29.59 in 5.0 mi SSE 5.8 mph - 0.00 in   Mostly Cloudy
1:30 PM 41.0 °F 39.0 °F 37.4 °F 87% 29.60 in 5.0 mi Variable 3.5 mph - 0.00 in Rain Light Rain
1:41 PM 41.0 °F 37.1 °F 39.2 °F 93% 29.60 in 2.5 mi Variable 5.8 mph - 0.00 in Rain Light Rain
1:53 PM 41.0 °F 38.0 °F 39.0 °F 93% 29.61 in 3.0 mi Variable 4.6 mph - 0.01 in Rain Light Rain
2:08 PM 41.0 °F 36.4 °F 39.2 °F 93% 29.61 in 5.0 mi SSE 6.9 mph - 0.00 in   Mostly Cloudy
2:47 PM 39.2 °F 37.0 °F 39.2 °F 100% 29.63 in 1.8 mi SSE 3.5 mph - 0.00 in Rain Light Rain
2:53 PM 39.9 °F 35.1 °F 37.9 °F 93% 29.64 in 1.5 mi South 6.9 mph - 0.00 in Rain Light Rain
3:01 PM 39.2 °F 34.2 °F 37.4 °F 93% 29.63 in 3.0 mi SSE 6.9 mph - 0.02 in Rain Light Rain
3:11 PM 39.2 °F 34.2 °F 37.4 °F 93% 29.65 in 3.0 mi SW 6.9 mph - 0.03 in Rain Light Rain
3:49 PM 39.2 °F 37.0 °F 37.4 °F 93% 29.65 in 2.5 mi SE 3.5 mph - 0.04 in Rain Light Rain
3:53 PM 39.0 °F 34.8 °F 37.9 °F 96% 29.66 in 3.0 mi SSE 5.8 mph - 0.04 in Rain Light Rain
4:53 PM 37.9 °F 35.5 °F 37.0 °F 97% 29.68 in 6.0 mi East 3.5 mph - 0.00 in   Overcast
5:53 PM 37.9 °F - 36.0 °F 93% 29.70 in 6.0 mi Calm Calm - 0.02 in   Overcast
6:53 PM 37.0 °F 33.3 °F 36.0 °F 96% 29.70 in 6.0 mi SE 4.6 mph - N/A   Clear
7:53 PM 37.9 °F - 37.0 °F 97% 29.72 in 5.0 mi Calm Calm - 0.00 in Rain Light Rain
8:53 PM 39.0 °F 33.4 °F 37.0 °F 93% 29.72 in 6.0 mi ESE 8.1 mph - 0.01 in   Scattered Clouds
9:53 PM 39.0 °F 35.7 °F 36.0 °F 89% 29.73 in 5.0 mi South 4.6 mph - 0.00 in Rain Light Rain
10:40 PM 37.4 °F 30.3 °F 35.6 °F 93% 29.74 in 2.5 mi SE 10.4 mph 19.6 mph 0.04 in Rain Light Rain
10:49 PM 37.4 °F 30.8 °F 35.6 °F 93% 29.74 in 3.0 mi SE 9.2 mph 17.3 mph 0.05 in Rain Light Rain
10:53 PM 37.0 °F 31.6 °F 36.0 °F 96% 29.75 in 3.0 mi ESE 6.9 mph 17.3 mph 0.06 in Rain Light Rain
11:19 PM 35.6 °F 30.7 °F 35.6 °F 100% 29.73 in 6.0 mi East 5.8 mph - 0.00 in   Mostly Cloudy
11:53 PM 36.0 °F 32.1 °F 35.1 °F 97% 29.73 in 7.0 mi ENE 4.6 mph - 0.00 in   Overcast